NOAA 16 DEB, 41364

Orbit data source: Space-Track

NOAA 16 DEB, 41364 is space debris in SSO originally from a launch on Thu, 21 Sep 2000 UTC launched from the Air Force Western Test Range (AFWTR). Debris objects in space refer to the collection of defunct objects orbiting the Earth. Examples of debris include non-operational satellites, rocket bodies, and fragments generated from explosions, collisions, or faulty payload assembly.

Loading next visibility...
Identifier
41364, 2000-055JH
Orbit
SSO
Country
Flag of USUS
Related business
Manufacturer
Unknown
Mission
Spacecraft
Bus & Motor
Unknown
Mass
Unknown
Launch date (UTC)
2000-09-21 (25 years ago)
Launch vehicle
Unknown
Launch site
Air Force Western Test Range (AFWTR)
Object type
Payload
Rocket body
Debris
Shape & HBR
Unknown shape, 0.1 m
Radar Cross Section
Small (<0.1 m²)

Expand to show TLE details & history
Last TLE update: 2 days ago

TLE from 2 days ago
0 NOAA 16 DEB
1 41364U 00055JH  25286.08642654  .00006208  00000-0  24900-2 0  9999
2 41364  98.6369 338.2780 0015953 142.2730 217.9573 14.28507421500557
Epoch: 2025-10-13T02:04Z
TLE epoch observation values (Epoch: 2025-10-13T02:04:27.253Z)
Latitude
-0.00001°
Longitude
-74.72981°
Altitude
808.686 km
Speed
7.444 km/s
True Right ascension
22h 33m 06s
True Declination
0° 00' 00"
Sunlit
Object was in full shadow at epoch
Visualization orbit readout
Latitude
Unknown
Longitude
Unknown
Altitude
Unknown
Speed
Unknown
Apparent Right ascension
Unknown
Apparent Declination
Unknown
Sunlit
N/A
Visualization observer readout
Local Sidereal Time
00:36:41
Azimuth
Unknown
Elevation
Unknown
Doppler factor
Unknown
Orbital elements
Apogee altitude
805.309 km
Perigee altitude
782.426 km
Semi-major axis
7,172.005 km
Eccentricity
0.0016
Inclination
98.6369°
RAAN
338.278°
Arg. of periapsis
142.273°
True anomaly
217.84504°
Mean anomaly
217.9573°
Eccentric anomaly
217.90115°
Mean motion
3.57341 °/min
Orbital period
100.74 mins
BSTAR
0.00249
Loading maneuver chart data...
Computing Atmospheric mass density...
Loading historical data...
Loading historical data...
Loading historical data...
Loading historical data...
Loading historical data...
Loading historical data...
Loading historical data...

Documentation

Showing up to 5 results
|